Location: Newark
(35.2672°N, 80.7344°W)
Time: 10:30:31
(UTC+00:00)

Vanguard 2 Rocket - Pass Details

Date: 27 January 2020
Orbit: 554 x 3327 km, 32.9° (Epoch: 19 February)

Event Time Altitude Azimuth Distance (km) Brightness Sun altitude
Rises 14:06:50 0° 275° (W) 3,415 9.4 16.9°
Reaches altitude 10° 14:08:59 10° 269° (W) 2,701 8.9 17.3°
Maximum altitude 14:15:14 47° 197° (SSW) 1,742 8.8 18.3°
Drops below altitude 10° 14:26:04 10° 129° (SE) 4,593 12.9 19.9°
Sets 14:30:54 0° 124° (SE) 6,058 12.6 20.7°
